[[{"header":{"parameterUnit":"m.s-1","parameterCategory":1,"la1":30.2991,"la2":30.254,"lo1":-89.0895,"lo2":-89.0444,"dy":0.0017,"dx":0.0017,"nx":28,"ny":28,"refTime":"2024-05-31T21:00:00:Z","depth":0,"parameterNumber":2,"parameterNumberName":"U-component_of_WINDS"},"data":[0,0,0,0,0,0,0,0,0,0,0,0,0,0,0,0,0,0,0,0,0,0,0,0,0,0,0,0,0,0,0,0,0,0,0,0,0,0,0,0,0,0,0,0,0,0,0,0,0,0,0,0,0,0,0,0,0,0,0.1676,0.1676,0,0.1616,0.1615,0.1615,0.1561,0.156,0.1559,0.1559,0.1497,0.1496,0.1495,0,0,0,0,0,0,0,0,0,0,0,0,0,0.1744,0.1743,0.1677,0.1676,0.1675,0.1616,0.1615,0.1614,0.1561,0.156,0.1559,0.1559,0.1497,0.1496,0.1494,0,0,0,0,0,0,0,0,0,0,0,0,0,0.1702,0.1743,0.1677,0.1641,0.1637,0.1616,0.1615,0.1614,0.1561,0.156,0.1559,0.1558,0.1497,0.1496,0.1494,0.1503,0,0,0.1489,0.1489,0,0,0,0,0,0,0,0,0.1705,0.17,0.1647,0.1644,0.1639,0.1595,0.1616,0.1577,0.1561,0.159,0.1559,0.1558,0.153,0.1526,0.1516,0.1501,0.1498,0.1489,0.1488,0.1488,0.1487,0,0,0,0,0,0,0,0.1708,0.1702,0.1653,0.1646,0.1642,0.1628,0.1621,0.1609,0.1566,0.1587,0.1583,0.1577,0.1528,0.1518,0.1515,0.1497,0.1489,0.1488,0.1487,0.1486,0.1483,0.1484,0,0,0,0,0,0,0.1716,0.1705,0.1654,0.1651,0.167,0.1627,0.1619,0.161,0.1566,0.1558,0.1578,0.1575,0.1521,0.1517,0.1512,0.1519,0.1488,0.1486,0.1485,0.1483,0.1484,0.1485,0,0,0,0,0,0,0.1718,0.1712,0.1657,0.1677,0.1669,0.1627,0.1617,0.1609,0.16,0.1559,0.1551,0.1576,0.152,0.1515,0.1506,0.1516,0.1485,0.1484,0.1482,0.1483,0.1484,0.1533,0,0,0,0,0,0,0.172,0.1713,0.1717,0.1677,0.1668,0.1652,0.1618,0.1609,0.1597,0.1592,0.1555,0.1548,0.1519,0.1508,0.1504,0.1513,0.1483,0.148,0.1482,0.1484,0.153,0.1535,0.154,0,0,0,0,0,0.1723,0.1733,0.1717,0.1711,0.1671,0.1653,0.1647,0.1614,0.1598,0.1601,0.1574,0.1549,0.1516,0.1508,0.1503,0.1511,0.148,0.1482,0.1484,0.1528,0.1534,0.154,0,0,0,0,0,0,0.1775,0.1727,0.1709,0.1707,0.1684,0.1644,0.1646,0.1623,0.1604,0.16,0.156,0.1552,0.1547,0.1528,0.1521,0.1517,0.1494,0.1495,0.1529,0.1535,0.154,0.1545,0.1481,0,0,0,0,0,0.1786,0.1775,0.1734,0.1736,0.1726,0.1688,0.1679,0.1655,0.163,0.162,0.1593,0.1569,0.1553,0.1543,0.1526,0.1527,0.1517,0.153,0.1536,0.154,0.1541,0.1538,0.1543,0.1491,0.1491,0.1491,0,0,0.1809,0.1782,0.1777,0.1746,0.1725,0.1714,0.168,0.167,0.1661,0.1618,0.1608,0.1587,0.1558,0.1554,0.155,0.1538,0.1553,0.1542,0.1546,0.1545,0.1541,0.1546,0.155,0.1492,0.1492,0.1492,0,0,0.1845,0.1824,0.1823,0.1803,0.1772,0.1747,0.1747,0.1709,0.1694,0.1683,0.165,0.1638,0.1612,0.1592,0.1578,0.1606,0.1581,0.1602,0.1628,0.1626,0.163,0.1634,0.1642,0.1646,0.1603,0.1603,0.1603,0,0.1878,0.186,0.1825,0.1817,0.1803,0.1764,0.1761,0.1744,0.1709,0.1701,0.1687,0.1652,0.163,0.1619,0.1626,0.1617,0.1614,0.1606,0.1633,0.1636,0.1638,0.1646,0.165,0.1606,0.1606,0.1605,0.1605,0,0.1901,0.1889,0.1892,0.1859,0.1846,0.1841,0.1804,0.1795,0.1773,0.1749,0.1737,0.1709,0.1685,0.1681,0.1659,0.1667,0.166,0.164,0.1616,0.1647,0.1653,0.1656,0.161,0.1609,0.1608,0.1607,0,0,0.1968,0.1916,0.1917,0.1901,0.1864,0.1854,0.1847,0.1823,0.1815,0.1793,0.1785,0.1763,0.1744,0.1729,0.1704,0.1703,0.1724,0.1683,0.1681,0.169,0.173,0.1744,0.1748,0.1708,0.1709,0.1709,0.1732,0,0.1997,0.1982,0.195,0.1944,0.1932,0.1894,0.1887,0.1864,0.1841,0.1827,0.1801,0.1786,0.1763,0.1753,0.175,0.1723,0.1732,0.1721,0.1699,0.1699,0.1707,0.1752,0.1767,0.179,0.1734,0.1735,0.1735,0,0.2029,0.2008,0.2002,0.1964,0.1958,0.1953,0.1928,0.1915,0.1887,0.1871,0.1853,0.1826,0.1815,0.1794,0.1778,0.1771,0.176,0.1746,0.1746,0.1742,0.1718,0.1748,0.1797,0.18,0.1739,0.1739,0.1738,0,0.2077,0.2048,0.204,0.2027,0.1984,0.1981,0.1963,0.1933,0.1921,0.1899,0.189,0.1868,0.1855,0.1838,0.1805,0.1793,0.1792,0.1768,0.1777,0.1778,0.1778,0.1778,0.1825,0.1773,0.1773,0.1773,0.1773,0,0.2112,0.2109,0.206,0.2055,0.2051,0.2013,0.201,0.1988,0.1962,0.1951,0.1917,0.1908,0.1865,0.1851,0.1825,0.1815,0.181,0.1795,0.1788,0.1798,0.1799,0.1789,0.1787,0.1774,0.1774,0.1774,0.1773,0,0.2165,0.2132,0.212,0.208,0.207,0.2068,0.2033,0.2026,0.2001,0.1988,0.1983,0.1944,0.1924,0.189,0.1862,0.1844,0.1839,0.1827,0.1848,0.1844,0.1854,0.1853,0.1895,0.1898,0.1846,0.1847,0.1847,0,0.2189,0.2185,0.2145,0.2135,0.2118,0.2103,0.209,0.2053,0.2041,0.2008,0.2005,0.1983,0.1964,0.1935,0.1904,0.1881,0.1868,0.1885,0.1865,0.1874,0.1867,0.1867,0.1866,0.1889,0.189,0.189,0.1891,0,0.2234,0.2218,0.2201,0.2177,0.2163,0.2143,0.2121,0.2115,0.2073,0.206,0.204,0.2026,0.1996,0.1974,0.1947,0.1927,0.1902,0.1897,0.1898,0.1907,0.1919,0.1911,0.1859,0.1896,0.1896,0.1895,0.1895,0.1895,0.2272,0.2267,0.2237,0.2219,0.2198,0.2179,0.217,0.2144,0.2126,0.2099,0.2079,0.206,0.2031,0.1992,0.1974,0.1958,0.1946,0.1947,0.1947,0.1948,0.1951,0.1922,0.1953,0.1953,0.1953,0.1952,0.1952,0,0.2315,0.2294,0.2277,0.2247,0.2233,0.221,0.2184,0.2173,0.2157,0.2133,0.2114,0.2091,0.2069,0.2036,0.2012,0.2006,0.1993,0.2001,0.2,0.1996,0.1964,0.1965,0.2011,0.2011,0.2011,0.2011,0.2011,0.2011,0.2335,0.2325,0.2305,0.2284,0.2263,0.2244,0.2231,0.2213,0.2192,0.2168,0.215,0.2129,0.21,0.2073,0.2052,0.2043,0.2035,0.2046,0.2033,0.2004,0.1998,0.1993,0.1994,0.2045,0.2045,0.2066,0.2066,0.2066]},{"header":{"parameterUnit":"m.s-1","parameterCategory":1,"la1":30.2991,"la2":30.254,"lo1":-89.0895,"lo2":-89.0444,"dy":0.0017,"dx":0.0017,"nx":28,"ny":28,"refTime":"2024-05-31T21:00:00:Z","depth":0,"parameterNumber":3,"parameterNumberName":"V-component_of_WINDS"},"data":[0,0,0,0,0,0,0,0,0,0,0,0,0,0,0,0,0,0,0,0,0,0,0,0,0,0,0,0,0,0,0,0,0,0,0,0,0,0,0,0,0,0,0,0,0,0,0,0,0,0,0,0,0,0,0,0,0,0,7.2817,7.2818,0,7.2895,7.2896,7.2897,7.2834,7.2831,7.2828,7.2826,7.2899,7.2904,7.2908,0,0,0,0,0,0,0,0,0,0,0,0,0,7.2606,7.261,7.2817,7.2818,7.2819,7.2895,7.2896,7.2897,7.2834,7.2831,7.2828,7.2824,7.2898,7.2903,7.2908,0,0,0,0,0,0,0,0,0,0,0,0,0,7.2692,7.2611,7.2817,7.2797,7.2796,7.2895,7.2896,7.2898,7.2835,7.2831,7.2827,7.2823,7.2896,7.2903,7.2909,7.303,0,0,7.2929,7.2932,0,0,0,0,0,0,0,0,7.2687,7.27,7.2799,7.2799,7.2798,7.2851,7.2849,7.2942,7.2836,7.282,7.2826,7.2821,7.2886,7.2893,7.2916,7.3034,7.3037,7.293,7.2934,7.2937,7.2939,0,0,0,0,0,0,0,7.2681,7.2696,7.2848,7.28,7.28,7.2781,7.2789,7.2866,7.2874,7.2821,7.2816,7.2827,7.2885,7.291,7.2918,7.3038,7.293,7.2936,7.294,7.2942,7.3255,7.3259,0,0,0,0,0,0,7.2678,7.2691,7.2845,7.285,7.2732,7.2789,7.2797,7.2838,7.2873,7.2875,7.283,7.2824,7.2901,7.291,7.292,7.3062,7.2937,7.2943,7.2947,7.3251,7.3256,7.3261,0,0,0,0,0,0,7.2674,7.2693,7.2842,7.277,7.2787,7.2796,7.2842,7.2841,7.2867,7.288,7.2881,7.2855,7.2898,7.2911,7.3003,7.3064,7.2946,7.2952,7.3246,7.3252,7.3258,7.3349,0,0,0,0,0,0,7.2668,7.2692,7.274,7.2771,7.2792,7.2927,7.2846,7.2846,7.2879,7.2871,7.2904,7.2905,7.2896,7.2993,7.301,7.3071,7.2957,7.324,7.3249,7.3256,7.334,7.3358,7.3372,0,0,0,0,0,7.2661,7.2761,7.2742,7.2761,7.2852,7.2931,7.2942,7.2931,7.2884,7.2931,7.2939,7.2904,7.3055,7.3003,7.3021,7.3085,7.3236,7.3246,7.3256,7.3333,7.3354,7.3372,0,0,0,0,0,0,7.2734,7.2765,7.2745,7.2859,7.2893,7.292,7.2979,7.2953,7.3,7.299,7.2972,7.298,7.3077,7.309,7.3033,7.3203,7.3138,7.3151,7.3191,7.3211,7.3226,7.322,7.2963,0,0,0,0,0,7.2764,7.2828,7.285,7.2948,7.2967,7.297,7.3004,7.2992,7.3025,7.3039,7.3054,7.3086,7.314,7.3176,7.3227,7.3342,7.3347,7.3395,7.3411,7.3424,7.3435,7.3494,7.3515,7.3293,7.3292,7.3292,0,0,7.2826,7.285,7.2891,7.2964,7.2989,7.3052,7.2982,7.3053,7.3098,7.3049,7.3137,7.3149,7.3184,7.3287,7.3334,7.3302,7.3498,7.3436,7.3446,7.3451,7.3507,7.3528,7.3546,7.3299,7.3298,7.3297,0,0,7.297,7.2997,7.308,7.3107,7.3146,7.3147,7.3168,7.3198,7.3205,7.3294,7.3257,7.331,7.3405,7.343,7.3455,7.3608,7.3576,7.3624,7.3707,7.3765,7.3783,7.3798,7.385,7.387,7.3636,7.3636,7.3637,0,7.3041,7.3138,7.3126,7.3199,7.3231,7.319,7.3273,7.3299,7.3352,7.3373,7.3337,7.3453,7.3474,7.3582,7.3619,7.3641,7.3661,7.362,7.3782,7.3797,7.3811,7.386,7.388,7.3642,7.3641,7.3641,7.364,0,7.3222,7.3289,7.3352,7.3406,7.3444,7.3522,7.3519,7.3559,7.3544,7.3548,7.3637,7.366,7.3714,7.3739,7.3724,7.3844,7.3823,7.3785,7.3718,7.3838,7.3884,7.3903,7.365,7.3648,7.3646,7.3645,0,0,7.3415,7.3461,7.3484,7.3507,7.3547,7.3597,7.3671,7.3726,7.3759,7.3797,7.3857,7.3937,7.3901,7.393,7.3917,7.3969,7.4085,7.3923,7.3924,7.3951,7.4216,7.4243,7.4266,7.4065,7.4068,7.4071,7.4212,0,7.356,7.3692,7.3683,7.3806,7.3866,7.3828,7.3892,7.3922,7.3927,7.3977,7.3982,7.4038,7.3988,7.4005,7.4054,7.4061,7.4138,7.405,7.4118,7.412,7.4109,7.429,7.432,7.4453,7.423,7.4234,7.4236,0,7.3747,7.3792,7.3922,7.3951,7.3976,7.4034,7.4082,7.4131,7.4162,7.4162,7.4194,7.4173,7.4244,7.4178,7.4275,7.4216,7.4242,7.425,7.4254,7.4259,7.4184,7.4298,7.4495,7.4514,7.4264,7.4262,7.426,0,7.3873,7.3966,7.4055,7.4076,7.4112,7.4154,7.417,7.4198,7.4231,7.4272,7.4292,7.434,7.4366,7.4403,7.4394,7.4347,7.4492,7.4426,7.4492,7.4493,7.4524,7.4522,7.4726,7.4544,7.4544,7.4543,7.4543,0,7.4034,7.4115,7.4112,7.4167,7.4254,7.4241,7.4328,7.4339,7.4364,7.4418,7.4387,7.4438,7.4423,7.4473,7.4466,7.4546,7.4558,7.4559,7.4555,7.4561,7.4561,7.4577,7.4567,7.4549,7.4547,7.4546,7.4545,0,7.4189,7.4191,7.4285,7.4312,7.432,7.4384,7.4405,7.4455,7.4458,7.4527,7.4542,7.4545,7.4602,7.4597,7.466,7.4655,7.4754,7.474,7.4744,7.474,7.4807,7.48,7.5027,7.5055,7.4857,7.4859,7.486,0,7.4292,7.4353,7.4387,7.4422,7.4441,7.4498,7.4531,7.452,7.4555,7.4595,7.464,7.4694,7.4736,7.4827,7.4834,7.4882,7.4868,7.4944,7.4875,7.4877,7.4867,7.4863,7.4868,7.4958,7.496,7.4962,7.4963,0,7.4474,7.4471,7.4521,7.4572,7.4613,7.4651,7.4686,7.4716,7.4708,7.4748,7.4807,7.484,7.4904,7.4957,7.5002,7.5016,7.4988,7.4985,7.5003,7.5008,7.5007,7.5007,7.4779,7.498,7.4978,7.4977,7.4976,7.4975,7.4604,7.4656,7.4687,7.4744,7.4769,7.4802,7.485,7.4859,7.4908,7.4961,7.4951,7.5015,7.5043,7.51,7.5119,7.5167,7.5139,7.5165,7.5171,7.5178,7.5185,7.5001,7.5175,7.5175,7.5174,7.5174,7.5174,0,7.4782,7.4801,7.4853,7.4903,7.4947,7.4919,7.4955,7.4993,7.5051,7.508,7.5122,7.5188,7.5239,7.5249,7.5297,7.5334,7.5322,7.5347,7.5343,7.5346,7.5208,7.5187,7.5355,7.5355,7.5355,7.5355,7.5355,7.5355,7.488,7.4965,7.4966,7.5063,7.5079,7.5144,7.5167,7.5196,7.5219,7.5295,7.5337,7.5345,7.5365,7.5414,7.5459,7.546,7.5478,7.5508,7.5504,7.5374,7.5356,7.5339,7.5319,7.5512,7.5513,7.5638,7.5639,7.564]}]]